Weather History for Blacksburg, VA

Change the Weather History Date:

Tuesday, October 25, 2011

  Actual Average Record
Temperature  
Mean Temperature 53 °F 50 °F  
Max Temperature 68 °F 63 °F 80 °F (2001)
Min Temperature 38 °F 37 °F 15 °F (1969)
Degree Days  
Heating Degree Days 12 15  
Month to date heating degree days 265 299  
Since 1 July heating degree days 343 430  
Cooling Degree Days 0 0  
Month to date cooling degree days 0 1  
Year to date cooling degree days 870 570  
Growing Degree Days 5 (Base 50)    
Moisture  
Dew Point 42 °F    
Average Humidity 83    
Maximum Humidity 93    
Minimum Humidity 72    
Precipitation  
Precipitation 0.00 in 0.09 in 2.00 in (1971)
Month to date precipitation 2.19 2.23  
Year to date precipitation 35.61 34.52  
Snow  
Snow 0.00 in - - ()
Month to date snowfall 0.0  
Since 1 July snowfall 0.0  
Since 1 September snowfall 0.0  
Snow Depth 0.00 in    
Sea Level Pressure  
Sea Level Pressure 30.23 in    
Wind  
Wind Speed 1 mph (WSW)    
Max Wind Speed 4 mph    
Max Gust Speed -    
Visibility 9 miles    
Events      
T = Trace of Precipitation, MM = Missing Value Source: NWS Daily Summary

Daily Weather History Graph

Daily Weather History Graph

Search for Another Location

Airport:

Trip Planner

Search our weather history database for the weather conditions in past years. The results will help you decide how hot, cold, wet, or windy it might be!

Date:

Astronomy

Oct. 25, 2011 Rise Set
Actual Time 7:38 AM EDT 6:32 PM EDT
Civil Twilight 7:12 AM EDT 6:58 PM EDT
Nautical Twilight 6:41 AM EDT 7:29 PM EDT
Astronomical Twilight 6:11 AM EDT 7:59 PM EDT
Moon 6:09 AM EDT (10/25) 5:32 PM EDT (10/25)
Length of Visible Light 11h 46m
Length of Day
10h 53m
Waning Crescent, 2% of the Moon is Illuminated
Oct 25
Waning Crescent
Oct 26
New
Nov 2
First Quarter
Nov 10
Full
Nov 18
Last Quarter

Hourly Weather History & Observations

Time (EDT) Temp. Dew Point Humidity Pressure Visibility Wind Dir Wind Speed Gust Speed Precip Events Conditions
12:15 AM 51.8 °F 48.2 °F 88% 30.18 in 10.0 mi WNW 5.8 mph - N/A   Clear
12:35 AM 51.8 °F 48.2 °F 88% 30.18 in 10.0 mi WNW 6.9 mph - N/A   Clear
12:55 AM 51.8 °F 48.2 °F 88% 30.18 in 10.0 mi WNW 5.8 mph - N/A   Clear
1:15 AM 50.0 °F 46.4 °F 87% 30.18 in 10.0 mi WNW 4.6 mph - N/A   Clear
1:35 AM 48.2 °F 46.4 °F 93% 30.18 in 10.0 mi Calm Calm - N/A   Clear
1:55 AM 46.4 °F 44.6 °F 93% 30.19 in 10.0 mi Calm Calm - N/A   Clear
2:15 AM 44.6 °F 44.6 °F 100% 30.19 in 10.0 mi Calm Calm - N/A   Clear
2:35 AM 44.6 °F 44.6 °F 100% 30.20 in 10.0 mi Calm Calm - N/A   Clear
2:55 AM 44.6 °F 44.6 °F 100% 30.20 in 7.0 mi Calm Calm - N/A   Clear
3:15 AM 42.8 °F 42.8 °F 100% 30.20 in 7.0 mi Calm Calm - N/A   Clear
3:35 AM 42.8 °F 42.8 °F 100% 30.21 in 10.0 mi Calm Calm - N/A   Clear
3:55 AM 42.8 °F 42.8 °F 100% 30.21 in 7.0 mi Calm Calm - N/A   Clear
4:15 AM 42.8 °F 42.8 °F 100% 30.22 in 7.0 mi Calm Calm - N/A   Clear
4:35 AM 42.8 °F 42.8 °F 100% 30.22 in 7.0 mi Calm Calm - N/A   Clear
4:55 AM 42.8 °F 42.8 °F 100% 30.22 in 4.0 mi Calm Calm - N/A   Clear
5:15 AM 41.0 °F 41.0 °F 100% 30.23 in 5.0 mi Calm Calm - N/A   Clear
5:35 AM 41.0 °F 41.0 °F 100% 30.23 in 4.0 mi Calm Calm - N/A   Clear
5:55 AM 41.0 °F 41.0 °F 100% 30.24 in 3.0 mi Calm Calm - N/A   Clear
6:15 AM 41.0 °F 41.0 °F 100% 30.24 in 2.0 mi Calm Calm - N/A   Clear
6:35 AM 42.8 °F 42.8 °F 100% 30.24 in 7.0 mi Calm Calm - N/A   Clear
6:55 AM 42.8 °F 42.8 °F 100% 30.24 in 7.0 mi Calm Calm - N/A   Clear
7:15 AM 42.8 °F 42.8 °F 100% 30.25 in 7.0 mi Calm Calm - N/A   Clear
7:35 AM 42.8 °F 42.8 °F 100% 30.26 in 7.0 mi Calm Calm - N/A   Clear
8:15 AM 44.6 °F 44.6 °F 100% 30.28 in 7.0 mi Calm Calm - N/A   Clear
8:35 AM 48.2 °F 46.4 °F 93% 30.28 in 10.0 mi WSW 3.5 mph - N/A   Clear
8:55 AM 51.8 °F 48.2 °F 88% 30.30 in 10.0 mi Calm Calm - N/A   Clear
9:15 AM 51.8 °F 46.4 °F 82% 30.30 in 10.0 mi West 4.6 mph - N/A   Clear
9:35 AM 53.6 °F 46.4 °F 77% 30.30 in 10.0 mi West 4.6 mph - N/A   Clear
9:55 AM 53.6 °F 46.4 °F 77% 30.31 in 10.0 mi West 3.5 mph - N/A   Clear
10:15 AM 55.4 °F 44.6 °F 67% 30.31 in 10.0 mi West 5.8 mph - N/A   Clear
10:35 AM 57.2 °F 44.6 °F 63% 30.30 in 10.0 mi West 5.8 mph - N/A   Clear
10:55 AM 57.2 °F 42.8 °F 59% 30.30 in 10.0 mi WSW 3.5 mph - N/A   Clear
11:15 AM 59.0 °F 42.8 °F 55% 30.30 in 10.0 mi SW 4.6 mph - N/A   Clear
11:35 AM 60.8 °F 42.8 °F 52% 30.30 in 7.0 mi WSW 3.5 mph - N/A   Clear
11:55 AM 60.8 °F 41.0 °F 48% 30.30 in 10.0 mi South 3.5 mph - N/A   Clear
12:15 PM 60.8 °F 39.2 °F 45% 30.29 in 10.0 mi West 5.8 mph - N/A   Clear
12:35 PM 62.6 °F 42.8 °F 48% 30.29 in 10.0 mi Calm Calm - N/A   Clear
12:55 PM 62.6 °F 39.2 °F 42% 30.27 in 10.0 mi NW 3.5 mph - N/A   Clear
1:15 PM 64.4 °F 39.2 °F 40% 30.26 in 10.0 mi West 3.5 mph - N/A   Clear
1:35 PM 64.4 °F 39.2 °F 40% 30.25 in 10.0 mi Calm Calm - N/A   Clear
1:55 PM 66.2 °F 39.2 °F 37% 30.24 in 10.0 mi Calm Calm - N/A   Clear
2:15 PM 66.2 °F 39.2 °F 37% 30.23 in 10.0 mi Calm Calm - N/A   Clear
2:35 PM 68.0 °F 37.4 °F 33% 30.22 in 10.0 mi Calm Calm - N/A   Clear
2:55 PM 66.2 °F 37.4 °F 35% 30.21 in 10.0 mi South 3.5 mph - N/A   Clear
3:15 PM 66.2 °F 37.4 °F 35% 30.21 in 10.0 mi South 4.6 mph - N/A   Clear
3:35 PM 68.0 °F 37.4 °F 33% 30.20 in 10.0 mi South 4.6 mph - N/A   Clear
3:55 PM 68.0 °F 39.2 °F 35% 30.20 in 10.0 mi South 9.2 mph - N/A   Clear
4:15 PM 66.2 °F 37.4 °F 35% 30.20 in 10.0 mi South 6.9 mph - N/A   Clear
4:35 PM 69.8 °F 39.2 °F 33% 30.20 in 10.0 mi West 3.5 mph - N/A   Clear
4:55 PM 69.8 °F 37.4 °F 31% 30.19 in 10.0 mi Calm Calm - N/A   Clear
5:15 PM 69.8 °F 39.2 °F 33% 30.19 in 10.0 mi Calm Calm - N/A   Clear
5:35 PM 68.0 °F 39.2 °F 35% 30.18 in 10.0 mi Calm Calm - N/A   Clear
5:55 PM 66.2 °F 39.2 °F 37% 30.18 in 10.0 mi Calm Calm - N/A   Clear
6:15 PM 64.4 °F 41.0 °F 42% 30.18 in 10.0 mi Calm Calm - N/A   Clear
6:35 PM 60.8 °F 42.8 °F 52% 30.18 in 10.0 mi Calm Calm - N/A   Clear
6:55 PM 57.2 °F 44.6 °F 63% 30.18 in 10.0 mi Calm Calm - N/A   Clear
7:15 PM 55.4 °F 44.6 °F 67% 30.18 in 10.0 mi Calm Calm - N/A   Clear
7:35 PM 55.4 °F 44.6 °F 67% 30.19 in 10.0 mi Calm Calm - N/A   Clear
7:55 PM 57.2 °F 44.6 °F 63% 30.19 in 10.0 mi South 5.8 mph - N/A   Clear
8:15 PM 60.8 °F 46.4 °F 59% 30.18 in 10.0 mi South 5.8 mph - N/A   Clear
8:35 PM 59.0 °F 46.4 °F 63% 30.18 in 10.0 mi SSW 4.6 mph - N/A   Clear
8:55 PM 55.4 °F 46.4 °F 72% 30.19 in 10.0 mi Calm Calm - N/A   Clear
9:15 PM 55.4 °F 46.4 °F 72% 30.18 in 10.0 mi Calm Calm - N/A   Clear
9:35 PM 55.4 °F 46.4 °F 72% 30.18 in 10.0 mi SW 4.6 mph - N/A   Clear
9:55 PM 55.4 °F 46.4 °F 72% 30.18 in 10.0 mi SW 3.5 mph - N/A   Clear
10:15 PM 55.4 °F 46.4 °F 72% 30.18 in 10.0 mi SSW 3.5 mph - N/A   Clear
10:35 PM 55.4 °F 46.4 °F 72% 30.18 in 10.0 mi Calm Calm - N/A   Clear
10:55 PM 50.0 °F 44.6 °F 82% 30.18 in 10.0 mi Calm Calm - N/A   Clear
11:15 PM 48.2 °F 44.6 °F 87% 30.18 in 10.0 mi Calm Calm - N/A   Clear
11:35 PM 48.2 °F 44.6 °F 87% 30.17 in 10.0 mi Calm Calm - N/A   Clear
11:55 PM 46.4 °F 44.6 °F 93% 30.17 in 10.0 mi Calm Calm - N/A   Clear